ZHONGXING-1D

Last updated on Tue Sep 16 2025 00:02:50 GMT+0000 (Coordinated Universal Time)

1 49505U 21114A 25258.61040272 -.00000353 00000+0 00000+0 0 9996 2 49505 0.0570 306.6852 0002442 326.9093 71.1306 1.00272778 14075
UTC large
Height (km)
Speed (km/s)
/
Latitude / Longitude
Inclination (degrees)
Orbital Period (minutes)
Azimuth
Elevation
Range (km)
Doppler Factor

Next 0 passes for location: London (51.5072 / 0.1276)

Sorry there are no passes over London.